QPF
0.00 0.00 0.00 0.00 0.00 0.00 0.00 0.00 0.00 0.00 0.00 0.00 0.01 0.03 0.12 0.32 0.00 0.01 0.00 0.01 0.00 0.00 0.00 0.00 0.00 0.01 0.02 0.05 0.06 0.04 0.03 0.02 0.00 0.00 0.00 0.00 0.00 0.00 0.00 0.00 0.00 0.00 0.00 0.01 0.01 0.00 0.00 0.00 0.00
0.00 0.00 0.00 0.00 0.00 0.00 0.00 0.00 0.00 0.00 0.00 0.00 0.00 0.00 0.00 0.00 0.00 0.00 0.00 0.00 0.00 0.00 0.00 0.00 0.00 0.00 0.00 0.04 0.04 0.05 0.01 0.00 0.00 0.00 0.00 0.00 0.00 0.01 0.00 0.01 0.02 0.00 0.00 0.00 0.00 0.00 0.00 0.00 0.01
0.00 0.00 0.00 0.00 0.00 0.00 0.00 0.00 0.00 0.00 0.00 0.00 0.00 0.00 0.00 0.00 0.00 0.00 0.00 0.00 0.00 0.00 0.00 0.00 0.01 0.01 0.00 0.01 0.01 0.02 0.01 0.00 0.00 0.00 0.00 0.00 0.00 0.03 0.08 0.03 0.06 0.02 0.01 0.00 0.00 0.00 0.00 0.00 0.00
0.00 0.00 0.00 0.00 0.00 0.00 0.00 0.00 0.00 0.00 0.00 0.00 0.00 0.00 0.00 0.00 0.00 0.00 0.00 0.01 0.00 0.01 0.00 0.00 0.00 0.01 0.00 0.00 0.01 0.00 0.00 0.00 0.00 0.00 0.00 0.00 0.02 0.02 0.00 0.00 0.00 0.00 0.00 0.00 0.00 0.00 0.00 0.00 0.00
0.04 0.06 0.00 0.00 0.00 0.00 0.00 0.00 0.00 0.00 0.00 0.00 0.00 0.00 0.00 0.00 0.00 0.00 0.00 0.00 0.00 0.00 0.00 0.00 0.00 0.00 0.00 0.00 0.00 0.00 0.00 0.00 0.00 0.00 0.00 0.00 0.04 0.01 0.00 0.00 0.00 0.00 0.00 0.00 0.00 0.00 0.00 0.00 0.00
0.03 0.00 0.00 0.00 0.00 0.00 0.00 0.00 0.00 0.00 0.00 0.00 0.00 0.00 0.00 0.00 0.00 0.00 0.00 0.00 0.00 0.00 0.00 0.00 0.01 0.04 0.04 0.02 0.00 0.00 0.00 0.00 0.00 0.00 0.00 0.00 0.01 0.00 0.00 0.00 0.00 0.00 0.00 0.00 0.00 0.00 0.00 0.00 0.00
0.01 0.00 0.00 0.00 0.01 0.01 0.05 0.00 0.00 0.00 0.00 0.00 0.00 0.00 0.00 0.00 0.00 0.00 0.00 0.00 0.00 0.00 0.00 0.00 0.00 0.01 0.01 0.03 0.03 0.01 0.00 0.00 0.00 0.00 0.00 0.00 0.00 0.00 0.00 0.00 0.00 0.00 0.00 0.00 0.00 0.00 0.00 0.00 0.00
0.03 0.00 0.00 0.01 0.00 0.00 0.00 0.00 0.00 0.00 0.00 0.00 0.00 0.00 0.00 0.00 0.00 0.00 0.00 0.01 0.00 0.00 0.00 0.00 0.00 0.00 0.00 0.00 0.06 0.06 0.00 0.00 0.00 0.00 0.00 0.00 0.00 0.02 0.04 0.07 0.04 0.00 0.00 0.00 0.00 0.00 0.00 0.00 0.00
0.00 0.00 0.00 0.00 0.00 0.00 0.00 0.00 0.00 0.00 0.00 0.00 0.00 0.00 0.00 0.00 0.00 0.00 0.00 0.00 0.00 0.00 0.00 0.00 0.00 0.00 0.04 0.00 0.00 0.05 0.01 0.00 0.00 0.00 0.00 0.00 0.00 0.21 0.47 0.61 0.15 0.03 0.00 0.00 0.00 0.00 0.00 0.00 0.00
0.00 0.00 0.00 0.00 0.00 0.00 0.10 0.00 0.00 0.00 0.00 0.00 0.00 0.00 0.00 0.00 0.00 0.00 0.00 0.00 0.00 0.00 0.00 0.00 0.00 0.00 0.00 0.01 0.00 0.00 0.00 0.00 0.00 0.00 0.01 0.00 0.00 0.03 0.15 0.18 0.07 0.07 0.02 0.01 0.03 0.02 0.05 0.01 0.00
0.00 0.00 0.00 0.00 0.00 0.00 0.01 0.00 0.02 0.23 0.04 0.00 0.00 0.00 0.00 0.00 0.00 0.00 0.00 0.00 0.00 0.00 0.00 0.00 0.01 0.00 0.00 0.10 0.01 0.00 0.00 0.00 0.00 0.00 0.01 0.04 0.03 0.03 0.00 0.01 0.04 0.03 0.02 0.00 0.02 0.00 0.01 0.01 0.00
0.00 0.00 0.00 0.00 0.00 0.01 0.00 0.00 0.00 0.33 0.10 0.00 0.00 0.00 0.00 0.00 0.00 0.00 0.00 0.00 0.00 0.00 0.00 0.00 0.00 0.01 0.00 0.00 0.00 0.00 0.00 0.00 0.00 0.00 0.00 0.00 0.01 0.02 0.00 0.00 0.00 0.00 0.00 0.00 0.00 0.00 0.00 0.00 0.00
0.00 0.00 0.00 0.00 0.00 0.00 0.00 0.00 0.00 0.00 0.01 0.00 0.00 0.00 0.00 0.00 0.00 0.00 0.00 0.00 0.00 0.00 0.00 0.00 0.00 0.00 0.00 0.02 0.01 0.01 0.00 0.00 0.00 0.00 0.00 0.00 0.00 0.01 0.00 0.00 0.01 0.00 0.00 0.00 0.01 0.00 0.00 0.00 0.00
0.00 0.00 0.00 0.00 0.00 0.00 0.00 0.00 0.00 0.00 0.00 0.00 0.00 0.00 0.00 0.00 0.00 0.00 0.00 0.00 0.00 0.00 0.00 0.00 0.00 0.00 0.01 0.02 0.03 0.02 0.00 0.00 0.00 0.00 0.00 0.00 0.00 0.01 0.03 0.03 0.01 0.02 0.00 0.00 0.03 0.02 0.00 0.00 0.00
0.00 0.00 0.00 0.00 0.00 0.00 0.00 0.00 0.00 0.00 0.00 0.00 0.00 0.00 0.00 0.00 0.00 0.00 0.00 0.00 0.00 0.00 0.00 0.00 0.00 0.00 0.00 0.01 0.01 0.00 0.00 0.00 0.00 0.00 0.00 0.00 0.00 0.02 0.06 0.03 0.00 0.01 0.01 0.01 0.02 0.01 0.02 0.00 0.00
0.00 0.00 0.00 0.00 0.00 0.00 0.01 0.00 0.00 0.00 0.00 0.00 0.00 0.00 0.00 0.00 0.00 0.00 0.00 0.00 0.00 0.00 0.00 0.00 0.00 0.00 0.01 0.01 0.02 0.01 0.00 0.00 0.00 0.00 0.00 0.00 0.00 0.02 0.04 0.00 0.00 0.00 0.00 0.00 0.03 0.04 0.04 0.02 0.00
0.00 0.00 0.00 0.00 0.00 0.00 0.00 0.00 0.00 0.00 0.00 0.00 0.00 0.00 0.00 0.00 0.00 0.00 0.00 0.00 0.00 0.00 0.00 0.00 0.00 0.00 0.06 0.03 0.01 0.01 0.02 0.01 0.01 0.00 0.00 0.00 0.02 0.09 0.09 0.04 0.01 0.00 0.00 0.00 0.01 0.01 0.04 0.03 0.01
0.00 0.00 0.00 0.00 0.00 0.00 0.00 0.00 0.00 0.00 0.00 0.00 0.00 0.00 0.00 0.00 0.00 0.00 0.00 0.00 0.00 0.00 0.00 0.00 0.00 0.00 0.02 0.08 0.10 0.08 0.09 0.03 0.00 0.02 0.02 0.03 0.10 0.08 0.13 0.14 0.09 0.10 0.09 0.07 0.08 0.06 0.03 0.01 0.01
0.00 0.00 0.00 0.00 0.00 0.00 0.00 0.00 0.00 0.00 0.00 0.00 0.00 0.00 0.00 0.00 0.00 0.00 0.00 0.00 0.00 0.00 0.00 0.00 0.00 0.00 0.01 0.05 0.05 0.06 0.05 0.02 0.01 0.02 0.01 0.05 0.05 0.08 0.09 0.08 0.07 0.06 0.03 0.03 0.03 0.01 0.01 0.01 0.03
0.00 0.00 0.00 0.00 0.00 0.00 0.00 0.00 0.00 0.00 0.00 0.00 0.00 0.00 0.00 0.00 0.00 0.00 0.00 0.00 0.00 0.00 0.00 0.00 0.00 0.01 0.02 0.05 0.02 0.02 0.01 0.02 0.02 0.00 0.00 0.02 0.01 0.01 0.00 0.00 0.00 0.00 0.00 0.01 0.01 0.01 0.01 0.02 0.04
0.00 0.00 0.00 0.00 0.00 0.00 0.00 0.00 0.01 0.00 0.00 0.00 0.00 0.00 0.00 0.00 0.00 0.00 0.00 0.00 0.00 0.00 0.00 0.00 0.00 0.01 0.02 0.01 0.02 0.03 0.00 0.00 0.00 0.00 0.01 0.01 0.00 0.00 0.00 0.00 0.00 0.00 0.00 0.00 0.01 0.03 0.03 0.01 0.02
0.00 0.00 0.00 0.00 0.00 0.00 0.00 0.00 0.00 0.00 0.00 0.00 0.00 0.00 0.00 0.00 0.00 0.00 0.00 0.00 0.00 0.00 0.00 0.00 0.00 0.00 0.00 0.00 0.00 0.00 0.00 0.00 0.00 0.00 0.00 0.00 0.00 0.00 0.00 0.00 0.00 0.01 0.00 0.01 0.01 0.02 0.03 0.03 0.02
0.00 0.00 0.00 0.00 0.00 0.00 0.00 0.00 0.00 0.00 0.01 0.00 0.00 0.00 0.00 0.00 0.00 0.00 0.00 0.00 0.00 0.00 0.00 0.00 0.00 0.00 0.00 0.00 0.00 0.00 0.00 0.00 0.00 0.00 0.00 0.00 0.00 0.00 0.00 0.00 0.00 0.00 0.00 0.01 0.01 0.02 0.02 0.03 0.04
0.00 0.00 0.00 0.00 0.00 0.00 0.00 0.00 0.00 0.00 0.00 0.00 0.00 0.00 0.00 0.00 0.00 0.00 0.00 0.00 0.00 0.00 0.00 0.00 0.00 0.00 0.00 0.00 0.00 0.00 0.00 0.00 0.00 0.00 0.00 0.00 0.00 0.00 0.00 0.00 0.00 0.00 0.00 0.00 0.00 0.01 0.02 0.02 0.03
0.00 0.00 0.00 0.00 0.00 0.00 0.00 0.00 0.00 0.00 0.00 0.00 0.03 0.01 0.00 0.00 0.00 0.00 0.00 0.00 0.00 0.00 0.00 0.00 0.00 0.00 0.00 0.00 0.00 0.00 0.00 0.00 0.00 0.00 0.00 0.00 0.00 0.00 0.00 0.00 0.00 0.00 0.00 0.00 0.00 0.01 0.01 0.02 0.03
0.00 0.00 0.00 0.00 0.00 0.00 0.00 0.00 0.00 0.00 0.00 0.00 0.00 0.00 0.00 0.00 0.00 0.00 0.00 0.00 0.00 0.00 0.00 0.00 0.00 0.00 0.00 0.00 0.00 0.00 0.00 0.00 0.00 0.00 0.00 0.00 0.00 0.00 0.00 0.00 0.00 0.00 0.00 0.00 0.01 0.01 0.01 0.02 0.04
0.00 0.00 0.00 0.00 0.00 0.00 0.00 0.00 0.00 0.00 0.00 0.00 0.00 0.00 0.00 0.00 0.00 0.00 0.00 0.00 0.00 0.00 0.00 0.00 0.00 0.00 0.00 0.00 0.00 0.00 0.00 0.00 0.00 0.00 0.00 0.00 0.00 0.00 0.00 0.00 0.00 0.00 0.00 0.00 0.00 0.00 0.01 0.01 0.02
0.00 0.00 0.00 0.00 0.00 0.00 0.00 0.00 0.00 0.00 0.00 0.00 0.00 0.00 0.00 0.00 0.00 0.00 0.00 0.00 0.00 0.00 0.00 0.00 0.00 0.00 0.00 0.00 0.00 0.00 0.00 0.00 0.00 0.00 0.00 0.00 0.00 0.00 0.00 0.00 0.00 0.00 0.00 0.00 0.01 0.01 0.01 0.02 0.01
0.00 0.00 0.00 0.00 0.00 0.00 0.00 0.00 0.00 0.00 0.00 0.00 0.00 0.00 0.00 0.00 0.00 0.00 0.00 0.00 0.00 0.00 0.00 0.00 0.00 0.00 0.00 0.00 0.00 0.00 0.00 0.00 0.00 0.00 0.00 0.00 0.00 0.00 0.00 0.00 0.00 0.00 0.00 0.01 0.03 0.03 0.02 0.03 0.02
0.00 0.00 0.00 0.00 0.00 0.00 0.00 0.00 0.00 0.00 0.00 0.00 0.00 0.00 0.00 0.00 0.00 0.00 0.00 0.00 0.00 0.00 0.00 0.00 0.00 0.00 0.00 0.00 0.00 0.00 0.00 0.00 0.00 0.00 0.00 0.00 0.00 0.00 0.00 0.00 0.00 0.00 0.00 0.01 0.02 0.01 0.01 0.02 0.01
MSLP
1004.04 1003.39 1002.83 1001.66 1001.54 1000.26 1001.14 1001.06 1000.73 1001.61 1002.41 1003.00 1005.31 1006.07 1007.30 1005.85 1006.10 1009.86 1011.44 1011.80 1012.17 1012.80 1013.55 1014.00 1014.37 1014.55 1014.92 1015.25 1015.45 1015.61 1016.01 1016.12 1016.47 1016.70 1016.65 1016.83 1017.14 1017.31 1017.46 1017.57 1017.65 1017.78 1017.95 1018.13 1018.22 1018.15 1018.18 1018.18 1018.23
1003.56 1002.02 1000.86 1000.13 998.87 999.48 1000.78 1001.22 1001.41 1002.00 1002.27 1002.68 1003.90 1005.24 1006.02 1007.27 1007.54 1009.67 1011.33 1011.91 1012.17 1012.43 1013.27 1014.15 1014.69 1014.90 1015.15 1015.50 1015.75 1015.93 1016.21 1016.48 1016.75 1016.93 1016.91 1017.22 1017.49 1017.70 1017.83 1017.92 1018.04 1018.23 1018.34 1018.54 1018.53 1018.45 1018.29 1018.16 1018.27
1003.44 1002.30 1000.83 998.37 998.59 999.25 1000.28 1000.91 1001.14 1001.44 1002.09 1002.84 1004.21 1005.13 1005.98 1007.48 1008.67 1010.16 1011.31 1012.00 1012.27 1012.86 1013.70 1014.49 1014.88 1015.14 1015.54 1015.70 1015.94 1016.18 1016.51 1016.75 1017.00 1017.17 1017.30 1017.62 1017.77 1017.95 1018.14 1018.27 1018.40 1018.56 1018.64 1018.69 1018.63 1018.58 1018.45 1018.29 1018.33
1001.89 1000.80 999.67 997.84 998.77 999.71 1000.17 1000.76 1001.36 1001.73 1002.74 1003.95 1004.78 1005.72 1006.61 1008.08 1009.44 1010.71 1011.75 1012.38 1012.95 1013.22 1014.03 1014.81 1015.08 1015.32 1015.66 1015.98 1016.16 1016.49 1016.78 1017.01 1017.22 1017.38 1017.59 1017.87 1017.98 1018.15 1018.33 1018.46 1018.55 1018.68 1018.73 1018.77 1018.71 1018.59 1018.45 1018.33 1018.41
1005.00 1003.36 999.78 999.13 999.34 999.69 1000.07 1000.46 1001.15 1001.71 1002.83 1003.97 1005.43 1006.44 1007.13 1008.70 1010.00 1010.81 1011.72 1012.22 1012.90 1013.59 1014.29 1014.93 1015.35 1015.57 1015.84 1016.19 1016.42 1016.72 1016.89 1017.17 1017.42 1017.62 1017.81 1017.95 1018.13 1018.40 1018.58 1018.72 1018.78 1018.83 1018.77 1018.81 1018.68 1018.52 1018.38 1018.30 1018.42
1003.61 1003.41 1000.16 999.63 999.98 1000.82 1000.35 1000.78 1001.04 1001.90 1003.41 1004.82 1005.85 1006.70 1007.77 1008.70 1009.66 1010.52 1011.40 1012.07 1012.38 1013.31 1014.31 1015.02 1015.65 1015.91 1016.22 1016.51 1016.68 1016.92 1017.18 1017.41 1017.66 1017.83 1017.95 1018.13 1018.37 1018.56 1018.60 1018.62 1018.63 1018.65 1018.82 1018.84 1018.74 1018.53 1018.38 1018.26 1018.37
1003.96 1003.00 1000.21 1000.39 1001.22 1002.59 1002.17 1000.96 1001.68 1002.63 1003.74 1004.78 1006.06 1006.95 1008.07 1008.52 1009.39 1009.90 1010.70 1011.88 1012.42 1013.20 1014.20 1015.03 1015.50 1015.87 1016.27 1016.54 1016.82 1017.04 1017.25 1017.53 1017.74 1017.93 1018.15 1018.32 1018.44 1018.36 1018.50 1018.65 1018.55 1018.52 1018.54 1018.77 1018.72 1018.53 1018.35 1018.21 1018.21
1003.45 1002.79 1000.25 1000.21 1000.84 1002.27 1002.30 1001.10 1001.88 1002.71 1003.60 1004.62 1005.74 1007.04 1007.79 1008.46 1008.85 1010.04 1011.10 1012.22 1012.74 1013.39 1014.05 1014.77 1015.45 1015.81 1016.21 1016.60 1016.85 1017.14 1017.39 1017.61 1017.82 1018.02 1018.22 1018.40 1018.21 1018.24 1019.28 1019.42 1018.78 1018.24 1018.30 1018.45 1018.50 1018.46 1018.20 1018.03 1017.95
1000.13 1001.01 999.20 999.63 999.53 1001.11 1001.34 1001.86 1002.47 1003.14 1003.94 1004.64 1005.13 1006.41 1007.60 1008.54 1008.86 1010.07 1011.58 1012.32 1012.90 1013.64 1014.18 1014.65 1015.09 1015.52 1015.93 1016.34 1016.87 1017.24 1017.51 1017.71 1017.84 1018.00 1018.15 1018.20 1017.77 1017.84 1018.78 1018.87 1018.94 1017.99 1018.06 1018.15 1018.29 1018.23 1018.03 1017.97 1017.75
997.79 999.31 998.41 998.83 998.79 1001.43 1002.66 1002.86 1003.30 1004.08 1004.38 1004.73 1005.85 1007.04 1008.06 1008.54 1008.97 1009.90 1010.98 1011.75 1012.28 1013.41 1014.18 1014.44 1014.84 1015.22 1015.64 1015.66 1016.70 1016.92 1017.19 1017.41 1017.59 1017.56 1017.80 1017.76 1017.34 1017.76 1018.67 1018.89 1018.59 1017.96 1017.91 1018.05 1018.12 1018.06 1017.73 1017.72 1017.45
996.87 996.92 997.70 998.44 999.17 1000.51 1002.30 1003.98 1004.61 1007.49 1005.00 1005.30 1006.19 1007.30 1008.30 1008.85 1009.36 1009.90 1010.75 1011.57 1011.87 1012.82 1013.16 1013.93 1014.68 1014.96 1015.41 1016.18 1016.12 1016.22 1016.45 1016.55 1016.92 1017.05 1017.21 1017.54 1017.55 1017.86 1017.45 1017.77 1017.62 1017.57 1017.49 1017.61 1017.45 1017.46 1017.52 1017.48 1017.20
996.85 997.10 997.69 998.44 999.73 1000.63 1001.39 1003.58 1006.37 1007.08 1006.85 1005.80 1006.75 1007.66 1008.45 1009.06 1009.61 1010.18 1010.62 1011.47 1012.09 1012.59 1012.93 1014.02 1014.62 1015.26 1015.45 1015.73 1015.58 1015.79 1015.87 1016.04 1016.52 1016.65 1016.92 1017.10 1017.27 1017.46 1017.33 1017.35 1017.36 1017.31 1017.50 1017.32 1017.40 1017.34 1017.31 1017.07 1016.80
997.07 997.53 998.24 998.90 999.73 1000.66 1002.01 1003.54 1005.71 1006.52 1006.29 1006.47 1007.08 1007.92 1008.57 1009.07 1009.74 1010.31 1010.82 1011.62 1012.23 1012.80 1013.01 1013.74 1014.61 1014.98 1015.26 1015.56 1015.62 1015.80 1015.82 1015.89 1015.94 1016.39 1016.63 1016.67 1016.99 1017.30 1017.39 1017.37 1017.45 1017.44 1017.35 1017.39 1017.22 1017.08 1017.17 1017.13 1016.92
997.29 997.86 998.51 998.88 999.87 1000.77 1002.00 1003.43 1004.82 1005.75 1006.26 1006.82 1007.55 1008.03 1008.51 1008.96 1009.69 1010.38 1010.91 1011.71 1012.43 1012.95 1013.19 1013.75 1014.54 1014.98 1015.35 1015.81 1015.87 1016.00 1015.74 1016.00 1015.72 1016.10 1016.30 1016.43 1016.69 1017.12 1017.10 1017.42 1017.34 1017.28 1017.34 1017.08 1017.31 1017.18 1017.28 1017.20 1016.91
997.89 998.26 998.69 999.39 1000.22 1001.10 1001.89 1003.41 1004.79 1005.78 1006.44 1006.91 1007.33 1007.69 1008.15 1008.78 1009.50 1010.25 1010.88 1011.58 1012.35 1012.91 1013.11 1013.67 1014.22 1014.76 1015.50 1015.90 1015.85 1015.83 1015.83 1015.58 1015.60 1015.79 1015.91 1016.13 1016.49 1016.48 1016.87 1017.14 1017.36 1017.27 1017.13 1016.97 1017.08 1017.09 1017.12 1017.12 1016.70
997.98 998.34 998.65 999.40 1000.66 1002.35 1002.52 1003.80 1004.83 1005.41 1005.86 1006.37 1006.76 1007.10 1007.86 1008.69 1009.35 1010.20 1010.81 1011.50 1012.17 1012.66 1013.34 1013.92 1014.25 1014.71 1015.18 1015.57 1015.77 1015.96 1015.95 1015.73 1015.53 1015.73 1015.89 1015.78 1015.78 1016.00 1016.61 1016.99 1017.10 1017.06 1017.00 1017.20 1017.20 1017.22 1017.18 1017.02 1016.78
997.85 997.57 998.76 999.70 1000.52 1001.65 1003.02 1003.36 1004.23 1004.59 1005.08 1005.66 1006.01 1006.67 1007.46 1008.34 1008.91 1009.86 1010.93 1011.61 1012.19 1012.78 1013.35 1013.80 1014.16 1014.55 1015.09 1015.44 1015.43 1015.71 1015.52 1015.61 1015.69 1015.76 1015.66 1015.66 1015.78 1016.16 1016.53 1016.87 1016.80 1016.93 1017.06 1017.03 1017.12 1017.08 1017.15 1017.21 1017.15
997.00 997.82 997.99 999.01 1000.06 1001.22 1001.98 1002.66 1003.51 1003.67 1004.27 1005.17 1005.68 1006.44 1007.01 1007.68 1008.38 1009.42 1010.51 1011.30 1012.00 1012.54 1013.17 1013.63 1013.97 1014.12 1014.83 1015.22 1015.62 1015.60 1015.69 1015.66 1015.52 1015.49 1015.69 1015.74 1015.96 1016.13 1016.54 1016.68 1016.85 1016.95 1017.13 1017.08 1016.92 1017.09 1017.12 1017.13 1017.03
996.27 996.60 998.08 998.61 999.59 1000.45 1001.42 1002.06 1002.57 1002.84 1003.59 1004.57 1005.18 1006.10 1006.53 1007.02 1007.77 1008.74 1009.58 1010.68 1011.14 1011.75 1012.73 1013.50 1014.02 1014.23 1014.73 1015.38 1015.70 1015.72 1015.81 1015.71 1015.52 1015.33 1015.38 1015.62 1015.74 1015.95 1016.27 1016.42 1016.51 1016.45 1016.76 1016.70 1016.76 1016.74 1016.89 1016.92 1016.79
995.93 996.15 996.67 997.64 998.16 999.10 1001.22 1002.00 1002.17 1002.44 1002.67 1003.61 1004.45 1005.38 1005.82 1006.43 1007.41 1008.44 1009.19 1009.93 1010.63 1011.39 1012.30 1012.99 1013.68 1014.36 1014.84 1015.25 1015.42 1015.48 1015.55 1015.28 1015.20 1015.09 1014.95 1015.20 1015.51 1015.70 1015.81 1015.95 1016.23 1016.27 1016.39 1016.37 1016.44 1016.37 1016.69 1016.90 1016.88
996.00 996.31 996.32 996.78 997.69 998.76 999.78 1001.23 1003.01 1002.85 1002.44 1002.66 1003.51 1004.52 1005.16 1005.87 1007.09 1008.13 1008.85 1009.54 1010.17 1011.08 1011.93 1012.70 1013.38 1014.14 1014.55 1014.86 1015.08 1015.36 1015.19 1015.10 1014.90 1014.99 1015.22 1015.63 1015.69 1015.72 1015.78 1015.86 1016.06 1016.27 1016.39 1016.41 1016.41 1016.51 1016.81 1016.98 1016.80
996.17 996.65 996.59 996.63 997.33 998.04 999.28 1000.05 1001.60 1002.05 1001.84 1002.02 1002.47 1003.31 1004.19 1005.14 1006.35 1007.57 1008.47 1009.10 1009.71 1010.74 1011.57 1012.37 1013.00 1013.57 1014.10 1014.35 1014.55 1014.84 1014.99 1015.08 1015.12 1015.08 1015.43 1015.54 1015.48 1015.77 1015.93 1015.98 1016.01 1016.17 1016.47 1016.48 1016.49 1016.52 1016.79 1016.87 1016.86
996.26 996.36 996.74 996.68 997.20 997.90 998.34 999.48 999.66 1000.97 1000.99 1001.27 1001.75 1002.35 1003.10 1004.13 1005.24 1006.39 1007.52 1008.48 1009.17 1010.23 1011.19 1012.06 1012.81 1013.41 1013.90 1014.34 1014.62 1014.81 1015.06 1015.22 1015.16 1015.22 1015.50 1015.82 1015.73 1015.75 1015.63 1015.72 1016.03 1016.39 1016.51 1016.48 1016.46 1016.50 1016.64 1016.63 1016.70
996.28 996.51 996.37 997.08 997.56 997.41 997.64 998.27 999.61 1000.69 1000.37 1000.92 1001.65 1002.07 1002.68 1003.01 1004.14 1005.23 1006.42 1007.65 1008.64 1009.76 1010.91 1011.82 1012.65 1013.38 1013.87 1014.25 1014.55 1014.84 1015.08 1015.30 1015.55 1015.81 1015.98 1015.87 1015.65 1015.53 1015.58 1015.88 1016.25 1016.44 1016.57 1016.43 1016.45 1016.35 1016.37 1016.32 1016.34
995.77 996.46 996.76 997.23 997.09 996.71 996.55 997.05 997.61 998.42 999.05 1000.11 1002.04 1003.45 1001.55 1002.03 1003.17 1004.43 1005.54 1006.85 1008.02 1009.25 1010.56 1011.69 1012.70 1013.31 1013.69 1014.04 1014.31 1014.58 1014.90 1015.29 1015.59 1015.81 1015.72 1015.84 1015.70 1015.50 1015.84 1016.14 1016.29 1016.42 1016.24 1016.16 1016.09 1016.20 1016.15 1016.04 1016.08
995.43 996.13 996.08 996.10 995.73 995.63 995.86 996.46 996.80 996.93 997.41 998.72 999.83 1000.55 1000.30 1000.95 1001.84 1003.51 1004.90 1006.26 1007.59 1008.84 1010.17 1011.38 1012.56 1013.12 1013.46 1013.79 1014.17 1014.54 1014.94 1015.15 1015.27 1015.34 1015.63 1015.81 1015.79 1015.66 1015.67 1015.82 1015.90 1015.98 1015.86 1015.77 1015.73 1015.92 1015.78 1015.65 1015.81
995.35 995.80 995.71 995.61 995.43 995.57 995.86 995.91 996.14 996.60 997.27 997.88 998.35 999.07 999.51 1000.53 1001.07 1002.24 1003.82 1005.73 1007.15 1008.45 1009.70 1011.03 1012.26 1012.95 1013.15 1013.49 1014.00 1014.39 1014.72 1015.00 1015.16 1015.40 1015.63 1015.70 1015.60 1015.63 1015.75 1015.68 1015.78 1015.75 1015.54 1015.46 1015.58 1015.57 1015.47 1015.52 1015.62
994.61 995.58 995.93 995.73 995.67 995.62 995.24 995.41 995.17 996.20 997.19 997.79 998.32 998.74 999.18 999.82 1000.24 1000.48 1002.75 1004.83 1006.50 1007.89 1009.25 1010.45 1011.82 1012.60 1012.85 1013.12 1013.61 1013.93 1014.20 1014.55 1014.94 1015.20 1015.44 1015.57 1015.58 1015.58 1015.62 1015.65 1015.69 1015.60 1015.48 1015.38 1015.42 1015.43 1015.42 1015.39 1015.48
994.19 994.72 995.11 995.42 995.82 995.62 995.61 996.48 996.27 996.74 997.16 997.60 998.12 998.72 999.38 999.66 1000.26 1001.00 1002.41 1004.28 1005.85 1007.26 1008.77 1009.80 1011.23 1012.18 1012.60 1012.79 1013.08 1013.38 1013.84 1014.18 1014.53 1014.87 1015.08 1015.21 1015.27 1015.31 1015.41 1015.48 1015.52 1015.45 1015.32 1015.10 1015.18 1015.19 1015.22 1015.21 1015.27
993.64 994.29 995.06 995.52 995.83 996.21 996.15 996.11 995.84 996.56 997.16 997.64 998.10 998.67 999.24 999.89 1000.45 1001.00 1002.27 1003.83 1005.44 1006.76 1008.09 1009.08 1010.46 1011.54 1012.18 1012.41 1012.74 1013.16 1013.64 1013.93 1014.22 1014.52 1014.72 1014.89 1015.04 1015.10 1015.11 1015.08 1015.09 1015.04 1014.93 1014.79 1014.85 1014.84 1014.86 1014.80 1014.83
Thickness
5866 5869 5874 5863 5822 5841 5803 5815 5846 5829 5826 5840 5816 5798 5783 5779 5802 5758 5791 5793 5791 5788 5782 5779 5776 5776 5774 5771 5770 5770 5766 5767 5764 5761 5765 5763 5761 5759 5757 5757 5757 5756 5755 5753 5752 5753 5753 5754 5754
5872 5883 5880 5859 5847 5810 5801 5827 5819 5827 5839 5847 5835 5819 5808 5788 5810 5799 5789 5796 5794 5793 5787 5780 5777 5777 5776 5772 5771 5770 5768 5765 5764 5762 5764 5761 5760 5758 5756 5756 5756 5754 5752 5750 5751 5752 5754 5756 5756
5874 5880 5855 5863 5843 5813 5806 5828 5832 5841 5847 5840 5824 5827 5816 5800 5808 5800 5801 5799 5796 5793 5786 5780 5777 5777 5775 5774 5771 5770 5767 5765 5763 5763 5762 5760 5758 5757 5756 5755 5754 5751 5750 5750 5751 5753 5755 5757 5757
5875 5868 5874 5856 5830 5838 5834 5838 5841 5838 5838 5835 5827 5806 5821 5821 5807 5805 5803 5799 5794 5793 5786 5780 5779 5778 5776 5774 5772 5768 5766 5764 5763 5762 5761 5759 5759 5757 5756 5755 5754 5752 5752 5751 5752 5754 5757 5758 5758
5842 5837 5856 5841 5839 5852 5858 5856 5851 5837 5833 5828 5821 5801 5805 5814 5815 5810 5804 5801 5795 5791 5785 5781 5778 5777 5775 5773 5771 5768 5767 5765 5764 5763 5761 5761 5759 5756 5754 5752 5752 5752 5753 5753 5755 5756 5759 5760 5759
5831 5833 5847 5830 5839 5843 5859 5861 5855 5842 5833 5823 5813 5806 5804 5823 5815 5813 5810 5804 5802 5795 5787 5783 5779 5778 5775 5773 5771 5769 5767 5766 5764 5763 5763 5762 5759 5755 5755 5754 5755 5755 5754 5754 5756 5758 5760 5762 5761
5822 5814 5846 5839 5818 5815 5819 5866 5846 5836 5827 5821 5824 5798 5808 5816 5821 5823 5817 5809 5805 5798 5791 5785 5783 5780 5777 5775 5773 5771 5770 5768 5767 5766 5764 5761 5757 5759 5759 5758 5758 5757 5758 5755 5756 5759 5761 5762 5763
5836 5836 5854 5846 5831 5820 5836 5865 5860 5845 5830 5847 5836 5797 5797 5817 5829 5822 5816 5807 5805 5800 5795 5790 5785 5782 5780 5777 5776 5774 5771 5770 5769 5767 5764 5761 5762 5762 5750 5752 5759 5762 5760 5759 5758 5759 5763 5764 5765
5877 5831 5854 5850 5859 5848 5871 5856 5865 5864 5842 5841 5842 5828 5827 5828 5831 5818 5805 5802 5800 5797 5795 5792 5789 5786 5783 5780 5776 5774 5772 5770 5769 5768 5766 5763 5767 5757 5760 5754 5756 5769 5763 5761 5760 5762 5764 5765 5766
5892 5853 5865 5882 5893 5849 5838 5853 5857 5845 5839 5836 5831 5833 5831 5830 5826 5815 5806 5802 5803 5797 5795 5797 5792 5789 5786 5786 5779 5777 5775 5773 5772 5772 5769 5768 5770 5767 5759 5757 5760 5766 5763 5761 5760 5762 5765 5765 5767
5900 5877 5892 5890 5891 5873 5851 5841 5839 5787 5828 5833 5822 5823 5825 5823 5820 5816 5812 5808 5808 5805 5806 5803 5797 5793 5789 5784 5784 5783 5781 5780 5776 5775 5773 5770 5767 5765 5767 5767 5766 5765 5762 5762 5763 5763 5763 5763 5765
5883 5899 5894 5893 5884 5873 5864 5849 5815 5805 5810 5844 5837 5831 5826 5819 5816 5814 5813 5810 5808 5807 5808 5802 5798 5791 5790 5788 5788 5786 5785 5783 5780 5778 5775 5773 5770 5766 5765 5763 5763 5764 5763 5763 5763 5763 5763 5764 5766
5885 5887 5890 5890 5883 5873 5867 5848 5821 5816 5836 5844 5840 5831 5824 5821 5818 5818 5816 5813 5810 5804 5807 5804 5798 5794 5791 5789 5788 5786 5785 5784 5783 5779 5776 5774 5771 5767 5765 5764 5762 5762 5762 5762 5762 5762 5760 5760 5762
5895 5891 5885 5890 5878 5871 5852 5843 5838 5835 5842 5836 5830 5826 5826 5823 5820 5816 5814 5808 5805 5804 5805 5804 5798 5793 5790 5787 5786 5784 5785 5782 5783 5781 5778 5776 5773 5769 5768 5763 5763 5761 5759 5760 5759 5758 5756 5757 5758
5891 5870 5879 5876 5871 5861 5864 5831 5822 5836 5836 5828 5829 5830 5830 5827 5825 5816 5816 5811 5808 5806 5807 5803 5800 5795 5790 5787 5785 5784 5783 5785 5784 5782 5780 5777 5773 5771 5767 5763 5760 5759 5758 5757 5755 5754 5752 5752 5754
5874 5876 5848 5872 5864 5853 5852 5807 5832 5845 5838 5829 5832 5834 5830 5826 5825 5822 5820 5815 5812 5810 5804 5802 5801 5797 5793 5790 5786 5784 5783 5784 5784 5782 5779 5778 5775 5772 5766 5760 5758 5756 5755 5752 5751 5750 5748 5749 5750
5868 5849 5845 5851 5868 5858 5840 5822 5840 5853 5845 5834 5836 5835 5831 5827 5829 5826 5819 5815 5811 5809 5805 5802 5801 5798 5794 5790 5788 5785 5786 5784 5782 5780 5779 5777 5774 5769 5765 5760 5758 5755 5752 5750 5749 5748 5746 5743 5741
5850 5846 5857 5849 5861 5853 5843 5835 5844 5852 5847 5836 5836 5833 5832 5829 5829 5829 5822 5818 5814 5811 5806 5803 5801 5801 5794 5790 5786 5785 5784 5782 5781 5780 5777 5774 5771 5768 5763 5761 5756 5753 5749 5747 5747 5743 5741 5739 5738
5888 5879 5850 5864 5865 5850 5839 5837 5843 5852 5848 5837 5836 5831 5832 5832 5837 5835 5831 5825 5821 5817 5808 5802 5798 5798 5793 5786 5781 5780 5777 5778 5780 5778 5777 5773 5770 5767 5762 5759 5756 5754 5750 5748 5745 5742 5737 5734 5734
5888 5877 5872 5879 5886 5874 5836 5828 5845 5851 5852 5846 5840 5835 5836 5836 5833 5831 5829 5826 5822 5817 5811 5806 5801 5795 5792 5787 5785 5783 5780 5780 5778 5777 5777 5774 5769 5765 5762 5760 5756 5753 5750 5746 5744 5740 5733 5729 5726
5875 5866 5873 5872 5880 5877 5863 5826 5814 5840 5856 5858 5854 5846 5844 5838 5829 5827 5825 5824 5824 5817 5812 5807 5803 5797 5794 5791 5787 5783 5783 5780 5778 5776 5772 5768 5764 5761 5758 5755 5751 5747 5744 5740 5738 5733 5726 5719 5719
5849 5878 5878 5879 5862 5833 5862 5810 5817 5830 5843 5852 5854 5852 5846 5842 5837 5830 5826 5825 5825 5819 5817 5810 5806 5801 5797 5794 5789 5783 5777 5771 5773 5772 5769 5765 5762 5758 5754 5750 5747 5743 5739 5735 5733 5729 5721 5716 5710
5857 5885 5873 5877 5862 5854 5854 5826 5830 5843 5834 5847 5853 5856 5853 5849 5844 5836 5831 5829 5829 5824 5817 5811 5805 5800 5795 5790 5787 5781 5775 5772 5772 5769 5764 5759 5758 5754 5752 5748 5743 5738 5734 5731 5727 5723 5716 5711 5706
5882 5869 5875 5868 5854 5823 5849 5843 5818 5815 5837 5846 5850 5854 5852 5854 5850 5845 5841 5836 5829 5825 5817 5810 5802 5795 5792 5788 5783 5777 5771 5767 5763 5760 5755 5754 5755 5754 5750 5743 5737 5731 5728 5725 5720 5718 5713 5708 5704
5875 5849 5817 5807 5812 5813 5866 5847 5845 5857 5863 5854 5822 5809 5858 5861 5853 5847 5838 5832 5828 5821 5814 5807 5797 5791 5790 5785 5781 5777 5771 5765 5759 5755 5753 5749 5747 5746 5741 5736 5731 5726 5723 5720 5716 5712 5709 5705 5699
5858 5851 5825 5793 5814 5833 5867 5826 5846 5882 5883 5866 5858 5855 5868 5866 5862 5850 5842 5833 5828 5821 5813 5804 5792 5787 5786 5782 5777 5773 5767 5762 5759 5756 5749 5745 5741 5739 5737 5731 5726 5722 5720 5716 5711 5707 5705 5701 5695
5850 5834 5873 5849 5861 5841 5848 5858 5876 5882 5875 5875 5872 5874 5867 5860 5855 5856 5847 5832 5827 5819 5811 5801 5790 5783 5783 5779 5774 5769 5764 5758 5752 5749 5745 5740 5739 5734 5729 5724 5720 5716 5713 5709 5704 5701 5698 5693 5688
5868 5872 5829 5844 5808 5802 5843 5845 5844 5851 5850 5859 5860 5863 5867 5863 5864 5856 5849 5832 5828 5821 5811 5802 5789 5781 5778 5776 5770 5766 5763 5758 5751 5745 5739 5735 5731 5727 5723 5718 5715 5711 5708 5703 5699 5694 5690 5683 5679
5858 5848 5855 5858 5846 5819 5815 5810 5859 5851 5855 5852 5855 5859 5860 5865 5859 5859 5851 5834 5828 5820 5810 5800 5787 5777 5771 5770 5766 5762 5756 5752 5747 5740 5735 5730 5726 5722 5717 5711 5706 5702 5699 5696 5689 5684 5678 5673 5668
5876 5858 5853 5823 5820 5833 5829 5825 5875 5864 5859 5857 5853 5856 5860 5862 5859 5856 5849 5835 5826 5816 5806 5798 5787 5775 5769 5767 5762 5756 5751 5747 5740 5734 5730 5725 5719 5715 5711 5706 5701 5696 5692 5689 5683 5676 5670 5664 5659